Terminal Aerodrome Forecast
Issued by NWS Caribou, ME

Home | Current Version | Previous Version | Text Only | Print | Product List | Glossary On
Versions: 1 2 3 4 5 6 7 8 9 10 11 12 13 14 15 16 17 18 19 20
000
FTUS41 KCAR 201100
TAFCAR
TAF
KCAR 201120Z 2012/2112 16004KT P6SM BKN200 WS020/22040KT
     FM201400 18012KT P6SM BKN080 WS020/22040KT
     FM202000 18012G20KT P6SM VCSH OVC040=

USA.gov is the U.S. government's official web portal to all federal, state and local government web resources and services.